FENGYUN 1C DEB, 31036

Orbit data source: Space-Track

FENGYUN 1C DEB, 31036 is space debris in SSO originally from a launch on Mon, 10 May 1999 UTC launched from the Taiyaun Space Center, China (TSC). Fengyun 1C debris stems from the Chinese weather satellite Fengyun-1C, which was intentionally destroyed by a Chinese anti-satellite missile in 2007. This event dramatically increased the amount of space debris, with thousands of trackable fragments posing hazards to satellites and human spaceflight. The Fengyun 1C debris cloud has become a focal point in discussions about space sustainability and the need for international regulations to prevent the creation of new debris.

Loading next visibility...
Identifier
31036, 1999-025BEE
Orbit
SSO
Country
Flag of CNCN / PRC
Related business
Manufacturer
Unknown
Mission
Spacecraft
Bus & Motor
Unknown
Mass
Unknown
Launch date (UTC)
1999-05-10 (27 years ago)
Launch vehicle
Unknown
Launch site
Taiyaun Space Center, China (TSC)
Object type
Payload
Rocket body
Debris
Shape & HBR
Unknown shape, 0.1 m
Radar Cross Section
Medium (>0.1 m² and <1 m²)

Expand to show TLE details & history
Last TLE update: 18 hours ago

TLE from 18 hours ago
0 FENGYUN 1C DEB
1 31036U 99025BEE 26169.18727148  .00000493  00000-0  12710-3 0  9990
2 31036  98.9300 291.3783 0138670  61.9041  56.1042 14.49434612600229
Epoch: 2026-06-18T04:29Z
TLE epoch observation values (Epoch: 2026-06-18T04:29:40.255Z)
Latitude
59.54688°
Longitude
152.94176°
Altitude
683.562 km
Speed
7.549 km/s
True Right ascension
08h 27m 10s
True Declination
59° 23' 41"
Sunlit
Object was in daylight at epoch
Visualization orbit readout
Latitude
Unknown
Longitude
Unknown
Altitude
Unknown
Speed
Unknown
Apparent Right ascension
Unknown
Apparent Declination
Unknown
Sunlit
N/A
Visualization observer readout
Local Sidereal Time
08:50:53
Azimuth
Unknown
Elevation
Unknown
Doppler factor
Unknown
Orbital elements
Apogee altitude
823.119 km
Perigee altitude
626.131 km
Semi-major axis
7,102.762 km
Eccentricity
0.01387
Inclination
98.93°
RAAN
291.3783°
Arg. of periapsis
61.9041°
True anomaly
57.43594°
Mean anomaly
56.1042°
Eccentric anomaly
56.76879°
Mean motion
3.62579 °/min
Orbital period
99.29 mins
BSTAR
0.0001271
Loading maneuver chart data...
Computing Atmospheric mass density...
Loading historical data...
Loading historical data...
Loading historical data...
Loading historical data...
Loading historical data...
Loading historical data...
Loading historical data...

Documentation

Showing up to 5 results
|